Regional Weather Roundup
Issued by NWS

Home | Current Version | Previous Version | Text Only | Print | Product List | Glossary On
Versions: 1 2 3 4 5 6 7 8 9 10 11 12 13 14 15 16 17 18 19 20 21 22 23 24 25 26 27 28 29 30 31 32 33 34 35 36 37 38 39 40
000
ASUS45 KBOU 280207
RWRCO

WEATHER ROUNDUP FOR COLORADO
NATIONAL WEATHER SERVICE DENVER/BOULDER CO
700 PM MST SAT DEC 27 2014

NOTE: "FAIR" INDICATES FEW OR NO CLOUDS BELOW 12000 FEET WITH NO
SIGNIFICANT WEATHER AND/OR OBSTRUCTIONS TO VISIBILITY.

COZ001>005-013-030-031-280300-
...NORTHWEST COLORADO...

CITY           SKY/WX    TMP DP  RH WIND       PRES   REMARKS
CRAIG          MOCLDY     1  -4  79 E3        30.24R
HAYDEN         MOCLDY     5   0  78 S3        30.20S
MEEKER         PTCLDY     3  -3  76 CALM      30.24R
MOUNT WERNER   NOT AVBL
STEAMBOAT SPGS MOCLDY     4  -1  80 CALM      30.20R
WALDEN         PTCLDY    10   1  67 S18G26    30.07F WCI  -8
$$

COZ006>008-011-280300-
...WEST CENTRAL VALLEYS...

CITY           SKY/WX    TMP DP  RH WIND       PRES   REMARKS
GRAND JUNCTION PTCLDY    18  11  74 CALM      30.31R
MONTROSE       MOCLDY    19  10  68 S10       30.30R WCI   7
EAGLE          MOCLDY    12   7  79 E7        30.25  WCI   2
RIFLE          PTCLDY    13   4  67 SE7       30.29S WCI   3
DELTA          MOCLDY    24  12  59 NE6       30.32R WCI  17
NUCLA          MOCLDY    19  10  68 E9        30.31R WCI   9
$$

COZ017>023-064>068-280300-
...SOUTHWEST COLORADO...

CITY           SKY/WX    TMP DP  RH WIND       PRES   REMARKS
DURANGO        PTCLDY    17  11  77 CALM      30.23R
CORTEZ         CLEAR     21   8  57 CALM      30.28R
PAGOSA SPRINGS MOCLDY    10   9  95 E3        30.19S FOG
TELLURIDE      MOCLDY    10   5  82 CALM      30.19R
WOLF CREEK PAS CLOUDY     0  -2  92 MISG      30.04S
$$

COZ009-010-012-014-032>034-037-058>063-280300-
...CENTRAL COLORADO...

CITY           SKY/WX    TMP DP  RH WIND       PRES   REMARKS
ASPEN          MOCLDY     7  -1  70 CALM      30.18R
BUENA VISTA    MOCLDY    14  -1  50 NW15      30.07F WCI  -1
COPPER MTN     MOCLDY     1  -8  66 W16       29.99R WCI -18
BERTHOUD PASS  CLOUDY    -8 -15  71 MISG      29.89S
COTTONWOOD PAS MOCLDY    14  -4  44 W9        30.02R WCI   2
GUNNISON       PTCLDY    -2 -11  65 NE3       30.23R
KREMMLING      PTCLDY     3  -4  72 CALM      30.19S
LEADVILLE      MOCLDY    -3  -9  75 N9        30.06R WCI -19
MONARCH PASS   CLOUDY     0  -6  78 MISG      30.06F
SALIDA         MOCLDY    17   3  54 W8        30.17S WCI   6
SUNLIGHT       PTCLDY   N/A N/A N/A CALM      30.09S
WILKERSON PASS CLOUDY     5  -6  61 W13G23    29.95S WCI -12
$$

COZ069>075-280300-
...SAN LUIS VALLEY/SANGRE DE CRISTO MOUNTAINS...

CITY           SKY/WX    TMP DP  RH WIND       PRES   REMARKS
ALAMOSA        MOCLDY     7   1  76 N7        30.17R WCI  -5
LA VETA PASS   NOT AVBL
SAGUACHE       MOCLDY     0  -2  92 CALM      30.18R
$$

COZ035-036-038>040-280300-
...NORTHERN COLORADO FRONT RANGE...

CITY           SKY/WX    TMP DP  RH WIND       PRES   REMARKS
DENVER INTL AP MOCLDY    17  10  74 S8        30.04S WCI   7
DMNS CITY PARK   N/A     24  12  60 S5        30.05S WCI  18
AURORA         PTCLDY    20  10  65 S7        30.05R WCI  12
FRONT RANGE AP MOCLDY    19  12  73 S10       30.05F WCI   8
ERIE MUNI ARPT   N/A      9   7  92 CALM      30.07S
BOULDER MUN AP MOCLDY    18  12  79 NE6       30.06S WCI   9
CENTENNIAL     MOCLDY    17   8  67 CALM      30.03S
BROOMFIELD     PTCLDY    18  10  73 N6        30.04S WCI   9
FORT COLLINS   MOCLDY    14   9  79 N6        30.09S WCI   5
LONGMONT       MOCLDY    17  11  79 CALM      30.09F
$$

COZ041-046-047-076>085-087-088-280300-
...PIKES PEAK/PALMER DIVIDE AND SOUTHERN FOOTHILLS...

CITY           SKY/WX    TMP DP  RH WIND       PRES   REMARKS
COLO. SPRINGS  MOCLDY    17   7  64 CALM      30.08S
A. F. ACADEMY  PTCLDY    17   7  63 SE7       30.05S WCI   8
ELLICOTT       NOT AVBL
FALCON         PTCLDY    14   6  72 SW5       30.06S WCI   6
FORT CARSON    PTCLDY    19  10  68 SW3       30.07F
LIMON          PTCLDY     4   1  88 CALM      30.09F
MONUMENT HILL  PTCLDY    14   9  79 S12       30.01S WCI   0
TRINIDAD       PTCLDY     6   2  83 NW9       30.09S WCI  -8
$$

COZ042>045-048>051-090-091-280300-
...NORTHEAST COLORADO...

CITY           SKY/WX    TMP DP  RH WIND       PRES   REMARKS
GREELEY ARPT   MOCLDY     1  -6  71 NW5       30.08S WCI  -8
AKRON          PTCLDY    16   6  65 S10       30.09S WCI   4
BURLINGTON     PTCLDY     9   2  73 SW8       30.15S WCI  -3
WRAY           PTCLDY    12   8  86 W8        30.15S WCI   0
STERLING       PTCLDY     3   1  92 W3        30.13S
HOLYOKE        PTCLDY    10   5  79 W8        30.14S WCI  -1
FORT MORGAN    PTCLDY    18  10  73 NE3       30.10F
$$

COZ086-089-092>099-280300-
...SOUTHEAST COLORADO...

CITY           SKY/WX    TMP DP  RH WIND       PRES   REMARKS
PUEBLO         CLEAR     16  10  77 NE7       30.12R WCI   6
LA JUNTA       CLEAR     22  15  75 CALM      30.15S
LAMAR          CLEAR     14  11  87 S3        30.15F
SPRINGFIELD      N/A     18  12  77 S6        30.15S WCI  10
$$


USA.gov is the U.S. government's official web portal to all federal, state and local government web resources and services.